Location: Wildlife_Club
(35.6000°N, 81.4330°W)
Time: 00:10:24
(UTC-04:00)

Vanguard 2 Rocket - Pass Details

Date: 18 June 2019
Orbit: 554 x 3326 km, 32.9° (Epoch: 12 October)

Event Time Altitude Azimuth Distance (km) Brightness Sun altitude
Rises 03:44:27 0° 277° (W) 5,744 10.7 -22.6°
Reaches altitude 10° 03:47:42 10° 276° (W) 5,037 10.4 -22.2°
Maximum altitude 04:03:49 74° 195° (SSW) 3,245 9.4 -20.3°
Drops below altitude 10° 04:24:14 10° 115° (ESE) 6,152 11.3 -17.6°
Sets 04:28:42 0° 114° (ESE) 7,012 11.7 -17.0°
